GW6771 Weather Reports


Display with metric or nautical units.
time (UTC)temp
F
wind
direction
speed
MPH
gust
MPH
rain 1hr
in
rain 24hr
in
rain mn
in
humidity
%
barometer
mb
20260506084036 49 0 10.0 13.0 0.00 0.86 0.13 94 1010.2
20260506083016 49 0 9.0 11.0 0.00 0.86 0.13 94 1010.2
20260506082016 49 23 9.0 12.0 0.00 0.87 0.13 94 1010.0
20260506081016 49 0 9.0 13.0 0.00 0.87 0.13 94 1009.9
20260506073016 48 23 11.0 16.0 0.00 0.88 0.13 95 1009.7
20260506072016 48 23 9.0 13.0 0.01 0.88 0.13 95 1009.5
20260506071016 48 23 11.0 13.0 0.01 0.88 0.13 95 1009.4
20260506062016 47 0 11.0 14.0 0.00 0.87 0.13 95 1008.9
20260506061016 46 0 12.0 16.0 0.00 0.87 0.13 95 1008.9
20260506051016 47 0 13.0 17.0 0.02 0.87 0.13 95 1008.3
20260506045016 47 0 13.0 17.0 0.02 0.87 0.12 95 1008.2
20260506044016 47 0 12.0 16.0 0.02 0.87 0.12 95 1008.2
20260506043016 47 0 11.0 15.0 0.02 0.87 0.12 95 1008.1
20260506042016 47 0 11.0 15.0 0.02 0.87 0.12 95 1008.1
20260506041016 47 0 11.0 15.0 0.02 0.86 0.11 95 1008.1
20260506040036 47 0 11.0 14.0 0.02 0.86 0.11 96 1008.1
20260506035016 47 0 11.0 15.0 0.02 0.85 0.10 95 1008.1
20260506034016 47 0 11.0 15.0 0.03 0.85 0.10 95 1008.1
20260506033016 47 0 11.0 15.0 0.02 0.84 0.09 95 1008.2
20260506032016 47 0 12.0 18.0 0.02 0.84 0.09 95 1008.1
20260506031016 47 0 10.0 14.0 0.02 0.83 0.09 95 1008.2
20260506030016 47 0 10.0 16.0 0.02 0.83 0.09 95 1008.2
20260506025116 48 0 9.0 13.0 0.02 0.83 0.08 95 1008.3
20260506024016 48 0 10.0 13.0 0.01 0.82 0.07 95 1008.3
20260506023016 48 0 9.0 11.0 0.02 0.82 0.07 95 1008.2
20260506022016 48 0 10.0 14.0 0.02 0.82 0.07 95 1008.2
20260506021016 48 0 11.0 15.0 0.01 0.81 0.06 95 1008.2
20260506020016 48 0 10.0 12.0 0.02 0.81 0.06 95 1008.1
20260506015035 48 0 9.0 13.0 0.02 0.81 0.06 95 1008.2
20260506014016 49 0 9.0 11.0 0.02 0.81 0.06 95 1008.2
20260506013035 49 0 10.0 14.0 0.02 0.80 0.06 95 1008.2
20260506012015 49 0 10.0 13.0 0.02 0.80 0.06 95 1008.1
20260506011015 49 0 10.0 13.0 0.02 0.80 0.06 95 1008.1
20260506010015 49 0 11.0 15.0 0.02 0.80 0.05 95 1008.1
20260506005015 50 0 10.0 13.0 0.02 0.80 0.05 95 1008.1
20260506004056 50 23 10.0 13.0 0.01 0.79 0.04 95 1008.2
20260506003016 50 23 9.0 12.0 0.01 0.79 0.04 95 1008.2
20260506002037 50 0 11.0 15.0 0.02 0.79 0.04 95 1008.2
20260506001015 51 23 9.0 15.0 0.01 0.78 0.03 95 1008.2
20260506000015 51 23 11.0 15.0 0.01 0.78 0.03 96 1008.2
20260505235035 51 23 10.0 13.0 0.01 0.78 0.03 96 1008.2
20260505234015 51 23 6.0 10.0 0.02 0.78 0.03 95 1008.2
20260505233015 51 23 8.0 10.0 0.02 0.78 0.03 95 1008.3
20260505232015 51 23 9.0 12.0 0.02 0.77 0.02 95 1008.2
20260505231015 52 0 9.0 14.0 0.02 0.77 0.02 96 1008.2
20260505230035 51 0 7.0 10.0 0.02 0.77 0.02 96 1008.1
20260505225015 51 0 9.0 12.0 0.03 0.77 0.02 96 1008.1
20260505224016 52 0 9.0 11.0 0.03 0.76 0.02 95 1008.2
20260505223015 52 0 7.0 9.0 0.04 0.76 0.02 96 1008.2
20260505222015 52 0 7.0 9.0 0.05 0.76 0.01 96 1008.3
20260505221015 52 0 6.0 8.0 0.06 0.76 0.01 96 1008.4
20260505220015 52 0 7.0 11.0 0.07 0.75 0.75 96 1008.4
20260505215036 52 0 6.0 10.0 0.09 0.74 0.74 95 1008.4
20260505214016 52 0 6.0 10.0 0.10 0.73 0.73 95 1008.5
20260505213015 52 0 8.0 11.0 0.10 0.72 0.72 95 1008.5
20260505212017 52 0 7.0 10.0 0.09 0.71 0.71 96 1008.6
20260505211036 52 0 9.0 13.0 0.09 0.69 0.69 95 1008.6
20260505210016 52 338 6.0 9.0 0.07 0.68 0.68 95 1008.5
20260505205015 52 338 5.0 7.0 0.05 0.65 0.65 95 1008.5
20260505204016 52 315 5.0 8.0 0.05 0.63 0.63 95 1008.5
20260505203016 52 338 4.0 9.0 0.06 0.62 0.62 95 1008.4
20260505202016 52 338 5.0 7.0 0.09 0.61 0.61 95 1008.4
20260505201036 52 338 5.0 8.0 0.09 0.61 0.61 95 1008.3
20260505200016 52 338 7.0 11.0 0.12 0.61 0.61 95 1008.2
20260505195056 52 338 7.0 12.0 0.13 0.60 0.60 95 1008.0
20260505194015 52 0 8.0 11.0 0.13 0.58 0.58 95 1007.9
20260505193015 52 338 10.0 12.0 0.12 0.56 0.56 95 1007.9
20260505192035 52 0 8.0 11.0 0.09 0.53 0.53 95 1007.8
20260505191015 52 0 8.0 10.0 0.09 0.51 0.51 96 1007.8
20260505190035 52 338 8.0 11.0 0.08 0.49 0.49 95 1007.7
20260505185015 52 338 7.0 10.0 0.08 0.46 0.46 95 1007.7
20260505184017 52 338 8.0 11.0 0.08 0.45 0.45 95 1007.6
20260505183016 52 338 7.0 10.0 0.08 0.44 0.44 95 1007.5
20260505182056 52 338 8.0 11.0 0.09 0.43 0.43 95 1007.5
20260505181015 52 338 7.0 10.0 0.09 0.43 0.43 95 1007.5
20260505180015 52 338 7.0 11.0 0.09 0.41 0.41 95 1007.5
20260505175035 52 338 6.0 10.0 0.07 0.39 0.39 95 1007.5
20260505174016 52 338 6.0 9.0 0.06 0.37 0.37 95 1007.5
20260505173015 52 0 8.0 10.0 0.06 0.36 0.36 95 1007.5
20260505172035 52 0 9.0 11.0 0.04 0.35 0.35 95 1007.6
20260505171015 52 0 8.0 11.0 0.02 0.33 0.33 95 1007.6
20260505170015 52 0 9.0 14.0 0.02 0.31 0.31 95 1007.5
20260505165015 52 0 8.0 11.0 0.02 0.31 0.31 95 1007.5
20260505164015 52 0 9.0 12.0 0.03 0.31 0.31 95 1007.5
20260505163015 52 0 10.0 12.0 0.05 0.31 0.31 95 1007.5
20260505162015 52 0 10.0 12.0 0.06 0.31 0.31 95 1007.5
20260505161015 52 0 8.0 12.0 0.07 0.31 0.31 95 1007.5
20260505153017 52 23 10.0 14.0 0.07 0.26 0.26 95 1007.5
20260505152017 52 23 11.0 15.0 0.07 0.24 0.24 95 1007.5
20260505151017 52 0 11.0 15.0 0.07 0.24 0.24 95 1007.5
20260505125037 53 23 13.0 19.0 0.01 0.10 0.09 95 1007.5
20260505124017 53 23 13.0 17.0 0.01 0.09 0.08 95 1007.5
20260505123017 54 23 13.0 17.0 0.01 0.10 0.08 95 1007.5
20260505122018 54 23 14.0 17.0 0.01 0.10 0.08 95 1007.5
20260505121017 54 23 10.0 15.0 0.01 0.10 0.08 96 1007.5
20260505120017 54 23 9.0 14.0 0.01 0.10 0.08 96 1007.6
20260505115017 54 23 10.0 14.0 0.02 0.10 0.08 96 1007.6
20260505114017 53 23 10.0 14.0 0.01 0.09 0.07 95 1007.6
20260505113037 53 23 12.0 14.0 0.02 0.09 0.07 95 1007.8
20260505112037 54 23 11.0 15.0 0.02 0.09 0.07 95 1007.8
20260505111017 54 23 10.0 15.0 0.02 0.09 0.07 95 1008.0
20260505102017 53 23 9.0 12.0 0.02 0.08 0.06 95 1008.3
20260505101017 53 23 7.0 11.0 0.02 0.07 0.05 96 1008.4
20260505100017 53 23 5.0 10.0 0.02 0.07 0.05 96 1008.3
20260505095017 53 45 8.0 15.0 0.01 0.06 0.04 96 1008.4
20260505094017 53 23 7.0 12.0 0.01 0.06 0.03 96 1008.4
20260505093017 53 23 7.0 11.0 0.01 0.06 0.03 96 1008.4
20260505092017 53 23 8.0 12.0 0.02 0.06 0.03 95 1008.3
20260505091017 53 23 10.0 14.0 0.02 0.06 0.03 95 1008.4
20260505090016 53 23 10.0 14.0 0.02 0.06 0.03 95 1008.3
20260505085016 53 23 9.0 12.0 0.02 0.06 0.03 95 1008.3